DW5128 Weather Reports


time (UTC)temp
F
wind
direction
speed
knots
gust
knots
rain 1hr
in
rain 24hr
in
rain mn
in
humidity
%
barometer
mb
20260505184314 81 68 7.8 11.3 0.00 0.00 0.00 75 1022.0
20260505183813 81 113 7.8 11.3 0.00 0.00 0.00 76 1022.0
20260505183314 81 180 7.8 9.6 0.00 0.00 0.00 75 1022.0
20260505182815 81 90 3.5 5.2 0.00 0.00 0.00 77 1022.0
20260505182314 81 90 7.8 11.3 0.00 0.00 0.00 76 1022.0
20260505181815 80 0 4.3 5.2 0.00 0.00 0.00 77 1022.0
20260505181313 81 45 5.2 6.1 0.00 0.00 0.00 75 1022.0
20260505180813 80 68 4.3 6.1 0.00 0.00 0.00 76 1022.0
20260505180314 81 68 6.1 7.0 0.00 0.00 0.00 74 1023.0
20260505175814 83 68 7.0 8.7 0.00 0.00 0.00 72 1023.0
20260505175313 82 23 7.8 9.6 0.00 0.00 0.00 74 1023.0
20260505174813 82 113 7.8 10.4 0.00 0.00 0.00 73 1022.0
20260505174314 83 90 3.5 5.2 0.00 0.00 0.00 72 1022.0
20260505173814 81 45 8.7 11.3 0.00 0.00 0.00 74 1023.0
20260505173314 82 90 6.1 8.7 0.00 0.00 0.00 73 1023.0
20260505172813 81 68 7.0 8.7 0.00 0.00 0.00 74 1022.0
20260505172314 80 180 1.7 2.6 0.00 0.00 0.00 75 1023.0
20260505171814 82 45 10.4 13.9 0.00 0.00 0.00 72 1023.0
20260505171313 81 113 4.3 6.1 0.00 0.00 0.00 75 1023.0
20260505170813 81 68 1.7 2.6 0.00 0.00 0.00 76 1023.0
20260505170315 81 45 5.2 6.1 0.00 0.00 0.00 75 1022.0
20260505165813 81 68 6.1 6.1 0.00 0.00 0.00 75 1023.0
20260505165314 81 23 3.5 4.3 0.00 0.00 0.00 76 1023.0
20260505164815 81 90 4.3 6.1 0.00 0.00 0.00 77 1023.0
20260505164313 80 68 7.0 8.7 0.00 0.00 0.00 76 1023.0
20260505163813 80 90 5.2 7.0 0.00 0.00 0.00 77 1023.0
20260505163314 81 45 7.8 10.4 0.00 0.00 0.00 76 1023.0
20260505162814 81 68 5.2 7.0 0.00 0.00 0.00 77 1023.0
20260505162318 79 90 6.1 8.7 0.00 0.00 0.00 79 1023.0
20260505161814 79 23 5.2 7.0 0.00 0.00 0.00 80 1023.0
20260505161313 79 45 4.3 6.1 0.00 0.00 0.00 79 1023.0
20260505160814 80 90 4.3 7.0 0.00 0.00 0.00 80 1023.0
20260505160316 80 23 5.2 7.0 0.00 0.00 0.00 79 1023.0
20260505153313 78 90 4.3 5.2 0.00 0.00 0.00 81 1023.0
20260505152813 78 23 4.3 6.1 0.00 0.00 0.00 79 1023.0
20260505152315 79 90 4.3 7.8 0.00 0.00 0.00 78 1023.0
20260505151813 79 45 7.8 8.7 0.00 0.00 0.00 77 1023.0
20260505151319 80 23 6.1 7.8 0.00 0.00 0.00 76 1023.0
20260505150814 79 68 7.0 8.7 0.00 0.00 0.00 78 1023.0
20260505150314 79 45 6.1 6.1 0.00 0.00 0.00 78 1023.0
20260505140314 78 23 8.7 11.3 0.00 0.00 0.00 79 1022.0
20260505124814 76 90 4.3 5.2 0.00 0.00 0.00 82 1022.0
20260505124313 76 68 7.0 8.7 0.00 0.00 0.00 82 1022.0
20260505123814 76 23 6.1 7.0 0.00 0.00 0.00 82 1022.0
20260505123314 77 23 3.5 4.3 0.00 0.00 0.00 82 1022.0
20260505122813 76 23 3.5 4.3 0.00 0.00 0.00 82 1022.0
20260505122313 77 45 2.6 3.5 0.00 0.00 0.00 81 1022.0
20260505121813 77 90 3.5 4.3 0.00 0.00 0.00 81 1022.0
20260505121313 77 68 3.5 4.3 0.00 0.00 0.00 81 1022.0
20260505120814 77 68 3.5 5.2 0.00 0.00 0.00 82 1022.0
20260505120314 76 45 3.5 4.3 0.00 0.00 0.00 82 1022.0
20260505115813 77 45 3.5 4.3 0.00 0.00 0.00 82 1022.0
20260505115313 76 68 6.1 7.8 0.00 0.00 0.00 82 1022.0
20260505114813 76 90 4.3 5.2 0.00 0.00 0.00 83 1022.0
20260505114313 76 90 5.2 6.1 0.00 0.00 0.00 84 1021.0
20260505113813 75 315 2.6 3.5 0.00 0.00 0.00 84 1021.0
20260505113314 75 45 4.3 6.1 0.00 0.00 0.00 84 1021.0
20260505112813 75 0 6.1 7.0 0.00 0.00 0.00 85 1021.0
20260505112313 75 23 5.2 7.8 0.00 0.00 0.00 85 1021.0
20260505111814 75 45 3.5 4.3 0.00 0.00 0.00 85 1022.0
20260505111317 75 113 2.6 2.6 0.00 0.00 0.00 85 1021.0
20260505110815 75 68 4.3 6.1 0.00 0.00 0.00 85 1021.0
20260505110313 75 23 6.1 8.7 0.00 0.00 0.00 85 1022.0
20260505101813 74 90 2.6 4.3 0.00 0.00 0.00 85 1021.0
20260505101314 74 45 4.3 5.2 0.00 0.00 0.00 85 1021.0
20260505100813 74 23 3.5 4.3 0.00 0.00 0.00 85 1021.0
20260505100317 74 45 4.3 6.1 0.00 0.00 0.00 85 1021.0
20260505095813 74 0 3.5 4.3 0.00 0.00 0.00 84 1021.0
20260505095314 74 68 1.7 2.6 0.00 0.00 0.00 84 1020.0
20260505094813 74 45 2.6 3.5 0.00 0.00 0.00 84 1021.0
20260505094314 74 113 2.6 4.3 0.00 0.00 0.00 84 1021.0
20260505093814 74 68 2.6 3.5 0.00 0.00 0.00 84 1020.0
20260505093314 74 68 1.7 1.7 0.00 0.00 0.00 84 1020.0
20260505092814 74 90 5.2 6.1 0.00 0.00 0.00 84 1020.0
20260505092314 74 45 2.6 4.3 0.00 0.00 0.00 85 1021.0
20260505091813 74 45 3.5 6.1 0.00 0.00 0.00 85 1020.0
20260505091313 74 68 0.9 1.7 0.00 0.00 0.00 84 1020.0
20260505090813 74 68 4.3 6.1 0.00 0.00 0.00 84 1020.0
20260505090313 74 23 4.3 6.1 0.00 0.00 0.00 84 1020.0
20260505085813 74 23 2.6 4.3 0.00 0.00 0.00 84 1020.0
20260505085314 74 45 6.1 8.7 0.00 0.00 0.00 84 1020.0
20260505084813 74 338 1.7 2.6 0.00 0.00 0.00 84 1020.0
20260505084313 74 68 2.6 3.5 0.00 0.00 0.00 84 1020.0
20260505083814 74 45 2.6 2.6 0.00 0.00 0.00 84 1020.0
20260505083314 74 23 6.1 7.8 0.00 0.00 0.00 84 1020.0
20260505082813 74 23 3.5 5.2 0.00 0.00 0.00 84 1020.0
20260505082313 74 45 3.5 4.3 0.00 0.00 0.00 84 1020.0
20260505081813 74 68 3.5 6.1 0.00 0.00 0.00 84 1020.0
20260505081313 74 68 2.6 4.3 0.00 0.00 0.00 84 1020.0
20260505080813 74 23 1.7 1.7 0.00 0.00 0.00 83 1020.0
20260505080314 74 45 2.6 4.3 0.00 0.00 0.00 83 1020.0
20260505075813 74 45 2.6 4.3 0.00 0.00 0.00 83 1020.0
20260505075313 74 23 2.6 4.3 0.00 0.00 0.00 83 1020.0
20260505074814 74 68 1.7 2.6 0.00 0.00 0.00 82 1020.0
20260505074314 74 68 2.6 4.3 0.00 0.00 0.00 82 1020.0
20260505073814 74 68 2.6 3.5 0.00 0.00 0.00 82 1020.0
20260505073313 74 45 3.5 4.3 0.00 0.00 0.00 82 1020.0
20260505072813 74 68 2.6 3.5 0.00 0.00 0.00 82 1021.0
20260505072313 74 68 2.6 3.5 0.00 0.00 0.00 82 1020.0
20260505071814 74 68 5.2 6.1 0.00 0.00 0.00 81 1020.0
20260505071313 74 45 3.5 4.3 0.00 0.00 0.00 81 1021.0
20260505070814 74 45 7.0 7.8 0.00 0.00 0.00 81 1020.0
20260505070313 74 68 2.6 2.6 0.00 0.00 0.00 81 1021.0
20260505065813 74 68 3.5 4.3 0.00 0.00 0.00 81 1021.0
20260505065314 74 90 6.1 7.0 0.00 0.00 0.00 81 1021.0
20260505064813 74 68 3.5 4.3 0.00 0.00 0.00 81 1021.0
20260505064313 74 45 2.6 3.5 0.00 0.00 0.00 81 1021.0
20260505063813 74 45 4.3 5.2 0.00 0.00 0.00 81 1021.0
20260505063313 73 0 4.3 6.1 0.00 0.00 0.00 82 1021.0
20260505062813 73 90 3.5 4.3 0.00 0.00 0.00 82 1021.0
20260505062313 73 45 3.5 4.3 0.00 0.00 0.00 82 1021.0
20260505061813 73 68 1.7 1.7 0.00 0.00 0.00 82 1021.0
20260505061313 74 113 5.2 7.0 0.00 0.00 0.00 82 1021.0
20260505060814 74 68 4.3 6.1 0.00 0.00 0.00 82 1021.0
20260505060313 74 68 2.6 4.3 0.00 0.00 0.00 82 1021.0
20260505055813 74 23 2.6 4.3 0.00 0.00 0.00 81 1021.0
20260505055313 74 68 2.6 4.3 0.00 0.00 0.00 81 1022.0
20260505054813 74 68 5.2 6.1 0.00 0.00 0.00 81 1021.0
20260505054313 74 113 2.6 3.5 0.00 0.00 0.00 81 1021.0
20260505053814 74 113 5.2 7.8 0.00 0.00 0.00 81 1021.0
20260505053314 74 158 2.6 3.5 0.00 0.00 0.00 81 1021.0
20260505052815 74 68 3.5 4.3 0.00 0.00 0.00 81 1022.0
20260505052313 74 23 2.6 3.5 0.00 0.00 0.00 81 1022.0
20260505051813 74 338 4.3 6.1 0.00 0.00 0.00 81 1022.0
20260505051313 74 135 1.7 1.7 0.00 0.00 0.00 81 1022.0
20260505050813 74 0 4.3 5.2 0.00 0.00 0.00 80 1022.0
20260505050313 74 68 3.5 4.3 0.00 0.00 0.00 80 1022.0
20260505041314 74 293 3.5 4.3 0.00 0.00 0.00 80 1022.0
20260505040814 74 90 3.5 4.3 0.00 0.00 0.00 80 1022.0
20260505040314 74 0 4.3 6.1 0.00 0.00 0.00 80 1022.0
20260505035813 74 90 2.6 5.2 0.00 0.00 0.31 80 1022.0
20260505035313 74 90 2.6 4.3 0.00 0.00 0.31 80 1022.0
20260505034814 74 68 1.7 1.7 0.00 0.00 0.31 80 1022.0
20260505034313 74 68 3.5 4.3 0.00 0.00 0.31 80 1022.0
20260505033813 74 0 4.3 5.2 0.00 0.00 0.31 81 1022.0
20260505033313 74 45 0.9 1.7 0.00 0.00 0.31 80 1022.0
20260505032813 74 90 6.1 7.0 0.00 0.00 0.31 80 1022.0
20260505032314 74 68 3.5 4.3 0.00 0.00 0.31 80 1022.0
20260505031813 74 45 4.3 5.2 0.00 0.00 0.31 80 1022.0
20260505031313 74 113 6.1 7.0 0.00 0.00 0.31 80 1022.0
20260505030813 74 68 3.5 4.3 0.00 0.00 0.31 80 1022.0
20260505030313 74 90 1.7 1.7 0.00 0.00 0.31 79 1022.0
20260505025814 74 68 3.5 4.3 0.00 0.00 0.31 79 1022.0
20260505025313 74 135 1.7 2.6 0.00 0.00 0.31 79 1022.0
20260505024813 74 0 2.6 4.3 0.00 0.00 0.31 79 1022.0
20260505024313 74 113 1.7 1.7 0.00 0.00 0.31 79 1022.0
20260505023814 74 90 3.5 5.2 0.00 0.00 0.31 79 1022.0
20260505023313 74 45 2.6 4.3 0.00 0.00 0.31 79 1022.0
20260505022813 74 23 3.5 4.3 0.00 0.00 0.31 79 1022.0
20260505022313 74 68 4.3 5.2 0.00 0.00 0.31 79 1022.0
20260505021813 74 45 2.6 4.3 0.00 0.00 0.31 79 1022.0
20260505021314 74 45 1.7 1.7 0.00 0.00 0.31 78 1022.0
20260505020814 74 45 4.3 5.2 0.00 0.00 0.31 78 1022.0
20260505020313 74 135 1.7 2.6 0.00 0.00 0.31 78 1022.0
20260505015813 74 45 2.6 3.5 0.00 0.00 0.31 79 1022.0
20260505015313 74 45 2.6 4.3 0.00 0.00 0.31 79 1022.0
20260505014813 75 45 1.7 1.7 0.00 0.00 0.31 79 1022.0
20260505014313 75 68 3.5 6.1 0.00 0.00 0.31 79 1022.0
20260505013813 74 68 1.7 2.6 0.00 0.00 0.31 78 1022.0
20260505013313 74 23 2.6 4.3 0.00 0.00 0.31 78 1022.0
20260505012814 74 113 2.6 3.5 0.00 0.00 0.31 79 1022.0
20260505012313 75 68 3.5 4.3 0.00 0.00 0.31 78 1022.0
20260505011813 75 68 3.5 4.3 0.00 0.00 0.31 77 1022.0
20260505011313 75 45 3.5 4.3 0.00 0.00 0.31 77 1022.0
20260505010813 75 90 2.6 3.5 0.00 0.00 0.31 77 1022.0
20260505010313 75 45 3.5 4.3 0.00 0.00 0.31 77 1022.0
20260505005813 75 68 4.3 6.1 0.00 0.00 0.31 77 1022.0
20260505005313 75 135 4.3 5.2 0.00 0.00 0.31 78 1022.0
20260505004813 75 68 2.6 4.3 0.00 0.00 0.31 77 1022.0
20260505004313 75 0 4.3 4.3 0.00 0.00 0.31 77 1021.0
20260505003813 74 90 2.6 4.3 0.00 0.00 0.31 77 1022.0
20260505003313 74 68 3.5 5.2 0.00 0.00 0.31 78 1022.0
20260505002813 75 68 2.6 4.3 0.00 0.00 0.31 78 1021.0
20260505002314 75 90 1.7 1.7 0.00 0.00 0.31 78 1021.0
20260505001813 74 0 2.6 3.5 0.00 0.00 0.31 77 1021.0
20260505001313 74 45 2.6 3.5 0.00 0.00 0.31 78 1021.0
20260505000813 74 90 4.3 6.1 0.00 0.00 0.31 78 1021.0
20260505000313 74 0 1.7 1.7 0.00 0.00 0.31 78 1021.0
20260504235813 74 23 1.7 3.5 0.00 0.00 0.31 78 1021.0
20260504235315 74 23 1.7 2.6 0.00 0.00 0.31 78 1021.0
20260504234813 74 45 2.6 3.5 0.00 0.00 0.31 78 1021.0
20260504234313 75 90 2.6 4.3 0.00 0.00 0.31 79 1021.0
20260504233813 75 68 2.6 4.3 0.00 0.00 0.31 78 1021.0
20260504233313 75 113 1.7 2.6 0.00 0.00 0.31 78 1021.0
20260504232813 75 68 2.6 3.5 0.00 0.00 0.31 78 1021.0
20260504232313 75 45 1.7 2.6 0.00 0.00 0.31 77 1021.0
20260504231814 75 23 2.6 3.5 0.00 0.00 0.31 77 1021.0
20260504231314 75 45 3.5 4.3 0.00 0.00 0.31 77 1021.0
20260504230813 75 90 2.6 3.5 0.00 0.00 0.31 77 1021.0
20260504230313 75 68 7.0 9.6 0.00 0.00 0.31 77 1021.0
20260504225813 75 68 4.3 5.2 0.00 0.00 0.31 78 1021.0
20260504225313 75 113 4.3 6.1 0.00 0.00 0.31 78 1021.0
20260504224814 75 45 3.5 5.2 0.00 0.00 0.31 78 1021.0
20260504224313 75 135 3.5 5.2 0.00 0.00 0.31 78 1021.0
20260504223813 76 68 5.2 6.1 0.00 0.00 0.31 78 1021.0
20260504223314 76 45 3.5 5.2 0.00 0.00 0.31 77 1021.0
20260504222813 76 113 2.6 4.3 0.00 0.00 0.31 77 1021.0
20260504222313 76 158 4.3 6.1 0.00 0.00 0.31 77 1021.0
20260504221813 76 68 2.6 4.3 0.00 0.00 0.31 77 1021.0
20260504221313 76 90 5.2 6.1 0.00 0.00 0.31 76 1021.0
20260504220815 76 68 6.1 7.8 0.00 0.00 0.31 76 1021.0
20260504220313 76 68 4.3 6.1 0.00 0.00 0.31 76 1021.0
20260504215813 76 68 3.5 4.3 0.00 0.00 0.31 76 1021.0
20260504215313 76 45 4.3 4.3 0.00 0.00 0.31 76 1021.0
20260504214814 76 68 2.6 4.3 0.00 0.00 0.31 77 1021.0
20260504214313 76 113 4.3 6.1 0.00 0.00 0.31 76 1021.0
20260504213816 76 90 3.5 4.3 0.00 0.00 0.31 76 1021.0
20260504213313 76 45 6.1 7.0 0.00 0.00 0.31 75 1021.0
20260504212813 77 113 5.2 8.7 0.00 0.00 0.31 75 1021.0
20260504212313 78 68 4.3 5.2 0.00 0.00 0.31 74 1021.0
20260504211813 77 45 6.1 9.6 0.00 0.00 0.31 74 1021.0
20260504211313 77 45 5.2 7.0 0.00 0.00 0.31 73 1021.0
20260504210813 78 158 3.5 4.3 0.00 0.00 0.31 72 1021.0
20260504210313 78 68 4.3 6.1 0.00 0.00 0.31 73 1021.0
20260504205814 78 68 2.6 4.3 0.00 0.00 0.31 73 1021.0
20260504205314 78 0 4.3 5.2 0.00 0.00 0.31 73 1021.0
20260504204814 77 338 1.7 1.7 0.00 0.00 0.31 75 1021.0
20260504204313 77 90 2.6 2.6 0.00 0.00 0.31 76 1021.0
20260504203813 77 0 3.5 4.3 0.00 0.00 0.31 76 1021.0
20260504203314 77 90 4.3 6.1 0.00 0.00 0.31 74 1022.0
20260504202813 78 90 5.2 6.1 0.00 0.00 0.31 75 1021.0
20260504202314 77 68 5.2 8.7 0.00 0.00 0.31 76 1022.0
20260504201816 77 90 4.3 4.3 0.00 0.00 0.31 76 1022.0
20260504201313 77 68 6.1 8.7 0.00 0.00 0.31 75 1021.0
20260504200813 78 23 7.0 8.7 0.00 0.00 0.31 74 1022.0
20260504200313 78 68 4.3 7.8 0.00 0.00 0.31 75 1021.0
20260504195814 77 90 4.3 6.1 0.00 0.00 0.31 76 1021.0
20260504195313 77 113 4.3 5.2 0.00 0.00 0.31 77 1022.0
20260504194814 77 45 6.1 7.0 0.00 0.00 0.31 77 1022.0
20260504194315 77 23 4.3 7.0 0.07 0.00 0.31 78 1022.0
20260504193813 76 90 7.8 11.3 0.00 0.00 0.30 79 1022.0
20260504193313 75 113 4.3 6.1 0.00 0.00 0.30 81 1022.0
20260504192813 75 135 3.5 5.2 0.00 0.00 0.30 82 1022.0
20260504192313 74 68 4.3 6.1 0.00 0.00 0.30 84 1022.0
20260504191814 74 68 4.3 5.2 0.00 0.00 0.30 84 1022.0
20260504191314 74 90 5.2 7.8 0.00 0.00 0.30 86 1022.0
20260504190814 73 45 6.1 7.0 0.00 0.00 0.30 87 1022.0
20260504190313 73 23 4.3 4.3 0.00 0.00 0.30 87 1022.0
20260504185814 73 68 3.5 5.2 0.00 0.00 0.30 87 1022.0
20260504185313 73 113 6.1 7.8 0.00 0.00 0.30 87 1022.0
20260504184814 72 45 7.8 9.6 0.07 0.00 0.30 88 1022.0